Weather History for Vicksburg, MS

Change the Weather History Date:

Tuesday, August 7, 2012

  Actual Average Record
Temperature  
Mean Temperature 84 °F 82 °F  
Max Temperature 96 °F 93 °F 99 °F (2011)
Min Temperature 71 °F 71 °F 61 °F (1966)
Degree Days  
Heating Degree Days 0 0  
Month to date heating degree days 0 0  
Since 1 June heating degree days 0 0  
Since 1 July heating degree days 0 0  
Cooling Degree Days 19 17  
Month to date cooling degree days 141 119  
Year to date cooling degree days 1674 1417  
Since 1 June cooling degree days 1119 1047  
Growing Degree Days 34 (Base 50)    
Moisture  
Dew Point 73 °F    
Average Humidity 72    
Maximum Humidity 100    
Minimum Humidity 43    
Precipitation  
Precipitation 0.00 in 0.11 in 1.42 in (1991)
Month to date precipitation T 0.65  
Year to date precipitation 32.18 33.57  
Sea Level Pressure  
Sea Level Pressure 29.98 in    
Wind  
Wind Speed 2 mph (South)    
Max Wind Speed 9 mph    
Max Gust Speed 14 mph    
Visibility 10 miles    
Events      
T = Trace of Precipitation, MM = Missing Value Source: NWS Daily Summary

Daily Weather History Graph

Daily Weather History Graph

Search for Another Location

Airport:

Trip Planner

Search our weather history database for the weather conditions in past years. The results will help you decide how hot, cold, wet, or windy it might be!

Date:

Astronomy

Aug. 07, 2012 Rise Set
Actual Time 6:23 AM CDT 7:55 PM CDT
Civil Twilight 5:56 AM CDT 8:22 PM CDT
Nautical Twilight 5:25 AM CDT 8:53 PM CDT
Astronomical Twilight 4:52 AM CDT 9:26 PM CDT
Moon 11:02 PM CDT (8/7) 11:46 AM CDT (8/7)
Length of Visible Light 14h 25m
Length of Day
13h 32m
Waning Gibbous, 69% of the Moon is Illuminated
Aug 7
Waning Gibbous
Aug 9
Last Quarter
Aug 17
New
Aug 24
First Quarter
Aug 31
Full

Hourly Weather History & Observations

Time (CDT) Temp. Heat Index Dew Point Humidity Pressure Visibility Wind Dir Wind Speed Gust Speed Precip Events Conditions
12:53 AM 75.9 °F - 73.0 °F 91% 29.99 in 10.0 mi Calm Calm - N/A   Clear
1:53 AM 73.9 °F - 72.0 °F 93% 29.98 in 10.0 mi Calm Calm - N/A   Clear
2:53 AM 73.0 °F - 72.0 °F 96% 29.97 in 10.0 mi Calm Calm - N/A   Mostly Cloudy
3:53 AM 73.9 °F - 72.0 °F 93% 29.98 in 10.0 mi Calm Calm - N/A   Partly Cloudy
4:53 AM 75.0 °F - 73.0 °F 94% 29.98 in 10.0 mi Calm Calm - N/A   Overcast
5:53 AM 73.0 °F - 72.0 °F 96% 29.99 in 10.0 mi Calm Calm - N/A   Partly Cloudy
6:53 AM 72.0 °F - 71.1 °F 97% 30.00 in 9.0 mi Calm Calm - N/A   Clear
7:53 AM 78.1 °F - 73.9 °F 87% 30.01 in 10.0 mi Calm Calm - N/A   Clear
8:53 AM 81.0 °F 85.8 °F 73.0 °F 77% 30.03 in 10.0 mi WSW 3.5 mph - N/A   Partly Cloudy
9:53 AM 82.9 °F 89.4 °F 73.9 °F 74% 30.04 in 10.0 mi Variable 3.5 mph - N/A   Overcast
10:53 AM 86.0 °F 95.1 °F 75.0 °F 70% 30.04 in 10.0 mi WNW 3.5 mph - N/A   Scattered Clouds
11:53 AM 90.0 °F 100.2 °F 75.0 °F 61% 30.02 in 10.0 mi Variable 4.6 mph - N/A   Clear
12:53 PM 91.9 °F 103.9 °F 75.9 °F 59% 30.00 in 10.0 mi Variable 3.5 mph - N/A   Mostly Cloudy
1:53 PM 93.9 °F 105.4 °F 75.0 °F 54% 29.97 in 10.0 mi Variable 3.5 mph - N/A   Clear
2:53 PM 93.9 °F 104.0 °F 73.9 °F 52% 29.95 in 10.0 mi ESE 5.8 mph - N/A   Clear
3:53 PM 95.0 °F 103.2 °F 72.0 °F 47% 29.93 in 10.0 mi Variable 3.5 mph - N/A   Clear
4:53 PM 95.0 °F 100.7 °F 69.1 °F 43% 29.92 in 10.0 mi SE 8.1 mph - N/A   Clear
5:53 PM 91.0 °F 99.3 °F 73.0 °F 55% 29.92 in 10.0 mi South 6.9 mph - N/A   Clear
6:53 PM 89.1 °F 98.0 °F 73.9 °F 61% 29.93 in 10.0 mi South 3.5 mph - N/A   Clear
7:53 PM 84.0 °F 91.9 °F 75.0 °F 74% 29.93 in 10.0 mi South 3.5 mph - N/A   Partly Cloudy
8:53 PM 80.1 °F 85.4 °F 75.9 °F 87% 29.94 in 10.0 mi Calm Calm - N/A   Clear
9:53 PM 79.0 °F - 75.0 °F 88% 29.97 in 10.0 mi Calm Calm - N/A   Clear
10:53 PM 78.1 °F - 75.0 °F 90% 29.98 in 10.0 mi Calm Calm - N/A   Partly Cloudy
11:53 PM 75.9 °F - 73.9 °F 94% 29.98 in 7.0 mi Calm Calm - N/A   Clear